Weather in Paguera

Spain     39°32′14″N   2°26′38″E
В апреле 2022 года жителям России запретили посещать сайт meteo.paraplan.net по решению Генеральной прокуратуры. Аудитория сайта уменьшилась в 10 раз. Владельцы сайта не видят смысла в поддержке погодного сервера в таких условиях. Сайт будет закрыт в октябре.
temp.,
°C
wind,
m/s
gust,
m/s
humid.,
%
clouds,
%
prec.,
mm/h
press.,
hPa
HPBL,
m
5 october, wed
wed523:00+22ene11712 0.0 1022277
02:00+21e22765 0.0 1022254
05:00+20ene33773 0.0 1021166
08:00+20ene33762 0.0 1022167
11:00+23ese22623 0.0 1023596
14:00+24sw325290 0.0 1022836
17:00+24w115792 0.0 1022814
20:00+22se1264100 0.0 1023289
6 october, thu
thu623:00+22ese337292 0.0 1024464
02:00+21ne33775 0.0 1024196
05:00+20nne337811 0.0 1024162
08:00+20ne45815 0.0 1024265
11:00+24ene566246 0.0 10251141
14:00+25e6763100 2.1 10241166
17:00+25ese8859100 1.1 10231254
20:00+22e6865100 1.2 1024657
7 october, fri
fri723:00+21ene697219 0.0 1025500
02:00+21ene5778100 0.8 1023317
05:00+21ene5680100 0.3 1022298
08:00+21ene57826 0.5 1022281
11:00+24e566593 0.4 1022742
14:00+26sse445642 0.6 1021991
17:00+24sse456659 1.4 1019521
20:00+23e346916 2.2 1019336
8 october, sat
sat823:00+22ene45765 0.1 1020212
02:00+21ene33786 0.7 1019135
05:00+21ne337490 0.7 1018111
08:00+21ne3473100 0.7 1018138
11:00+24e45615 0.0 1019718
14:00+25ese4560100 0.8 10181103
17:00+24ene5662100 2.3 1017949
20:00+22ene567399 2.5 1018492
9 october, sun
sun923:00+21ene578131 0.0 1019399
02:00+20ene568356 0.0 1018346
05:00+20ene568418 0.0 1017257
08:00+20ene458545 0.0 1017246
11:00+23e457216 0.1 1017734
14:00+24ssw226459 0.2 1016812
17:00+23sse336916 3.8 1015650
20:00+22e117256 4.3 1015257